Year,Month,Day,Hour,Minute,Value (Times are PST for temperature in C)
2011,09,27,00,00,11.70
2011,09,27,00,01,11.60
2011,09,27,00,02,11.60
2011,09,27,00,03,11.60
2011,09,27,00,04,11.60
2011,09,27,00,05,11.60
2011,09,27,00,06,11.60
2011,09,27,00,07,11.60
2011,09,27,00,08,11.60
2011,09,27,00,09,11.60
2011,09,27,00,10,11.60
2011,09,27,00,11,11.60
2011,09,27,00,12,11.60
2011,09,27,00,13,11.60
2011,09,27,00,14,11.50
2011,09,27,00,15,11.50
2011,09,27,00,16,11.50
2011,09,27,00,17,11.50
2011,09,27,00,18,11.50
2011,09,27,00,19,11.50
2011,09,27,00,20,11.50
2011,09,27,00,21,11.50
2011,09,27,00,22,11.50
2011,09,27,00,23,11.50
2011,09,27,00,24,11.50
2011,09,27,00,25,11.50
2011,09,27,00,26,11.60
2011,09,27,00,27,11.60
2011,09,27,00,28,11.60
2011,09,27,00,29,11.50
2011,09,27,00,30,11.60
2011,09,27,00,31,11.50
2011,09,27,00,32,11.60
2011,09,27,00,33,11.60
2011,09,27,00,34,11.60
2011,09,27,00,35,11.60
2011,09,27,00,36,11.60
2011,09,27,00,37,11.60
2011,09,27,00,38,11.60
2011,09,27,00,39,11.60
2011,09,27,00,40,11.60
2011,09,27,00,41,11.60
2011,09,27,00,42,11.60
2011,09,27,00,43,11.60
2011,09,27,00,44,11.50
2011,09,27,00,45,11.50
2011,09,27,00,46,11.50
2011,09,27,00,47,11.50
2011,09,27,00,48,11.50
2011,09,27,00,49,11.50
2011,09,27,00,50,11.50
2011,09,27,00,51,11.60
2011,09,27,00,52,11.60
2011,09,27,00,53,11.60
2011,09,27,00,54,11.60
2011,09,27,00,55,11.70
2011,09,27,00,56,11.70
2011,09,27,00,57,11.70
2011,09,27,00,58,11.70
2011,09,27,00,59,11.70
2011,09,27,01,00,11.70
2011,09,27,01,01,11.70
2011,09,27,01,02,11.70
2011,09,27,01,03,11.70
2011,09,27,01,04,11.70
2011,09,27,01,05,11.70
2011,09,27,01,06,11.70
2011,09,27,01,07,11.70
2011,09,27,01,08,11.70
2011,09,27,01,09,11.70
2011,09,27,01,10,11.60
2011,09,27,01,11,11.60
2011,09,27,01,12,11.60
2011,09,27,01,13,11.60
2011,09,27,01,14,11.60
2011,09,27,01,15,11.60
2011,09,27,01,16,11.50
2011,09,27,01,17,11.50
2011,09,27,01,18,11.50
2011,09,27,01,19,11.40
2011,09,27,01,20,11.40
2011,09,27,01,21,11.40
2011,09,27,01,22,11.30
2011,09,27,01,23,11.30
2011,09,27,01,24,11.30
2011,09,27,01,25,11.30
2011,09,27,01,26,11.30
2011,09,27,01,27,11.20
2011,09,27,01,28,11.20
2011,09,27,01,29,11.20
2011,09,27,01,30,11.20
2011,09,27,01,31,11.20
2011,09,27,01,32,11.20
2011,09,27,01,33,11.20
2011,09,27,01,34,11.10
2011,09,27,01,35,11.10
2011,09,27,01,36,11.10
2011,09,27,01,37,11.10
2011,09,27,01,38,11.10
2011,09,27,01,39,11.10
2011,09,27,01,40,11.10
2011,09,27,01,41,11.10
2011,09,27,01,42,11.10
2011,09,27,01,43,11.10
2011,09,27,01,44,11.10
2011,09,27,01,45,11.10
2011,09,27,01,46,11.10
2011,09,27,01,47,11.10
2011,09,27,01,48,11.10
2011,09,27,01,49,11.00
2011,09,27,01,50,11.10
2011,09,27,01,51,11.00
2011,09,27,01,52,11.00
2011,09,27,01,53,11.00
2011,09,27,01,54,11.00
2011,09,27,01,55,11.00
2011,09,27,01,56,11.00
2011,09,27,01,57,11.00
2011,09,27,01,58,11.00
2011,09,27,01,59,11.00
2011,09,27,02,00,11.00
2011,09,27,02,01,11.00
2011,09,27,02,02,11.00
2011,09,27,02,03,11.00
2011,09,27,02,04,11.00
2011,09,27,02,05,11.00
2011,09,27,02,06,11.00
2011,09,27,02,07,11.00
2011,09,27,02,08,11.00
2011,09,27,02,09,11.00
2011,09,27,02,10,11.00
2011,09,27,02,11,11.00
2011,09,27,02,12,11.00
2011,09,27,02,13,11.00
2011,09,27,02,14,11.00
2011,09,27,02,15,11.00
2011,09,27,02,16,11.00
2011,09,27,02,17,11.00
2011,09,27,02,18,10.90
2011,09,27,02,19,10.90
2011,09,27,02,20,11.00
2011,09,27,02,21,11.00
2011,09,27,02,22,10.90
2011,09,27,02,23,10.90
2011,09,27,02,24,10.90
2011,09,27,02,25,10.90
2011,09,27,02,26,10.90
2011,09,27,02,27,10.90
2011,09,27,02,28,10.90
2011,09,27,02,29,10.90
2011,09,27,02,30,10.80
2011,09,27,02,31,10.80
2011,09,27,02,32,10.80
2011,09,27,02,33,10.80
2011,09,27,02,34,10.80
2011,09,27,02,35,10.80
2011,09,27,02,36,10.80
2011,09,27,02,37,10.80
2011,09,27,02,38,10.80
2011,09,27,02,39,10.70
2011,09,27,02,40,10.70
2011,09,27,02,41,10.70
2011,09,27,02,42,10.70
2011,09,27,02,43,10.70
2011,09,27,02,44,10.70
2011,09,27,02,45,10.70
2011,09,27,02,46,10.70
2011,09,27,02,47,10.60
2011,09,27,02,48,10.60
2011,09,27,02,49,10.60
2011,09,27,02,50,10.60
2011,09,27,02,51,10.60
2011,09,27,02,52,10.60
2011,09,27,02,53,10.60
2011,09,27,02,54,10.60
2011,09,27,02,55,10.50
2011,09,27,02,56,10.50
2011,09,27,02,57,10.50
2011,09,27,02,58,10.50
2011,09,27,02,59,10.50
2011,09,27,03,00,10.50
2011,09,27,03,01,10.50
2011,09,27,03,02,10.50
2011,09,27,03,03,10.50
2011,09,27,03,04,10.40
2011,09,27,03,05,10.40
2011,09,27,03,06,10.40
2011,09,27,03,07,10.40
2011,09,27,03,08,10.40
2011,09,27,03,09,10.40
2011,09,27,03,10,10.40
2011,09,27,03,11,10.40
2011,09,27,03,12,10.40
2011,09,27,03,13,10.40
2011,09,27,03,14,10.40
2011,09,27,03,15,10.40
2011,09,27,03,16,10.40
2011,09,27,03,17,10.40
2011,09,27,03,18,10.40
2011,09,27,03,19,10.40
2011,09,27,03,20,10.50
2011,09,27,03,21,10.50
2011,09,27,03,22,10.50
2011,09,27,03,23,10.50
2011,09,27,03,24,10.50
2011,09,27,03,25,10.50
2011,09,27,03,26,10.50
2011,09,27,03,27,10.50
2011,09,27,03,28,10.50
2011,09,27,03,29,10.50
2011,09,27,03,30,10.50
2011,09,27,03,31,10.50
2011,09,27,03,32,10.50
2011,09,27,03,33,10.50
2011,09,27,03,34,10.50
2011,09,27,03,35,10.50
2011,09,27,03,36,10.50
2011,09,27,03,37,10.50
2011,09,27,03,38,10.50
2011,09,27,03,39,10.50
2011,09,27,03,40,10.50
2011,09,27,03,41,10.50
2011,09,27,03,42,10.60
2011,09,27,03,43,10.50
2011,09,27,03,44,10.60
2011,09,27,03,45,10.50
2011,09,27,03,46,10.50
2011,09,27,03,47,10.50
2011,09,27,03,48,10.60
2011,09,27,03,49,10.60
2011,09,27,03,50,10.60
2011,09,27,03,51,10.60
2011,09,27,03,52,10.60
2011,09,27,03,53,10.60
2011,09,27,03,54,10.60
2011,09,27,03,55,10.60
2011,09,27,03,56,10.60
2011,09,27,03,57,10.60
2011,09,27,03,58,10.60
2011,09,27,03,59,10.60
2011,09,27,04,00,10.60
2011,09,27,04,01,10.70
2011,09,27,04,02,10.70
2011,09,27,04,03,10.70
2011,09,27,04,04,10.70
2011,09,27,04,05,10.70
2011,09,27,04,06,10.70
2011,09,27,04,07,10.70
2011,09,27,04,08,10.70
2011,09,27,04,09,10.70
2011,09,27,04,10,10.70
2011,09,27,04,11,10.70
2011,09,27,04,12,10.70
2011,09,27,04,13,10.70
2011,09,27,04,14,10.70
2011,09,27,04,15,10.70
2011,09,27,04,16,10.70
2011,09,27,04,17,10.70
2011,09,27,04,18,10.70
2011,09,27,04,19,10.70
2011,09,27,04,20,10.70
2011,09,27,04,21,10.70
2011,09,27,04,22,10.70
2011,09,27,04,23,10.70
2011,09,27,04,24,10.70
2011,09,27,04,25,10.70
2011,09,27,04,26,10.70
2011,09,27,04,27,10.70
2011,09,27,04,28,10.70
2011,09,27,04,29,10.70
2011,09,27,04,30,10.70
2011,09,27,04,31,10.70
2011,09,27,04,32,10.70
2011,09,27,04,33,10.60
2011,09,27,04,34,10.60
2011,09,27,04,35,10.60
2011,09,27,04,36,10.70
2011,09,27,04,37,10.70
2011,09,27,04,38,10.70
2011,09,27,04,39,10.80
2011,09,27,04,40,10.70
2011,09,27,04,41,10.80
2011,09,27,04,42,10.80
2011,09,27,04,43,10.80
2011,09,27,04,44,10.80
2011,09,27,04,45,10.70
2011,09,27,04,46,10.70
2011,09,27,04,47,10.70
2011,09,27,04,48,10.70
2011,09,27,04,49,10.60
2011,09,27,04,50,10.60
2011,09,27,04,51,10.60
2011,09,27,04,52,10.60
2011,09,27,04,53,10.60
2011,09,27,04,54,10.60
2011,09,27,04,55,10.60
2011,09,27,04,56,10.60
2011,09,27,04,57,10.60
2011,09,27,04,58,10.60
2011,09,27,04,59,10.60
2011,09,27,05,00,10.60
2011,09,27,05,01,10.70
2011,09,27,05,02,10.70
2011,09,27,05,03,10.70
2011,09,27,05,04,10.70
2011,09,27,05,05,10.70
2011,09,27,05,06,10.70
2011,09,27,05,07,10.70
2011,09,27,05,08,10.70
2011,09,27,05,09,10.70
2011,09,27,05,10,10.70
2011,09,27,05,11,10.70
2011,09,27,05,12,10.70
2011,09,27,05,13,10.70
2011,09,27,05,14,10.70
2011,09,27,05,15,10.70
2011,09,27,05,16,10.70
2011,09,27,05,17,10.70
2011,09,27,05,18,10.70
2011,09,27,05,19,10.70
2011,09,27,05,20,10.70
2011,09,27,05,21,10.70
2011,09,27,05,22,10.70
2011,09,27,05,23,10.70
2011,09,27,05,24,10.70
2011,09,27,05,25,10.70
2011,09,27,05,26,10.70
2011,09,27,05,27,10.70
2011,09,27,05,28,10.70
2011,09,27,05,29,10.70
2011,09,27,05,30,10.80
2011,09,27,05,31,10.80
2011,09,27,05,32,10.80
2011,09,27,05,33,10.90
2011,09,27,05,34,10.90
2011,09,27,05,35,10.90
2011,09,27,05,36,10.90
2011,09,27,05,37,10.90
2011,09,27,05,38,10.90
2011,09,27,05,39,10.90
2011,09,27,05,40,10.90
2011,09,27,05,41,10.90
2011,09,27,05,42,10.90
2011,09,27,05,43,10.90
2011,09,27,05,44,10.90
2011,09,27,05,45,11.00
2011,09,27,05,46,11.00
2011,09,27,05,47,11.00
2011,09,27,05,48,11.00
2011,09,27,05,49,11.10
2011,09,27,05,50,11.10
2011,09,27,05,51,11.10
2011,09,27,05,52,11.10
2011,09,27,05,53,11.20
2011,09,27,05,54,11.10
2011,09,27,05,55,11.10
2011,09,27,05,56,11.20
2011,09,27,05,57,11.20
2011,09,27,05,58,11.20
2011,09,27,05,59,11.20
2011,09,27,06,00,11.20
2011,09,27,06,01,11.20
2011,09,27,06,02,11.20
2011,09,27,06,03,11.20
2011,09,27,06,04,11.20
2011,09,27,06,05,11.20
2011,09,27,06,06,11.20
2011,09,27,06,07,11.20
2011,09,27,06,08,11.20
2011,09,27,06,09,11.20
2011,09,27,06,10,11.10
2011,09,27,06,11,11.10
2011,09,27,06,12,11.10
2011,09,27,06,13,11.10
2011,09,27,06,14,11.10
2011,09,27,06,15,11.10
2011,09,27,06,16,11.10
2011,09,27,06,17,11.10
2011,09,27,06,18,11.10
2011,09,27,06,19,11.10
2011,09,27,06,20,11.10
2011,09,27,06,21,11.10
2011,09,27,06,22,11.10
2011,09,27,06,23,11.10
2011,09,27,06,24,11.10
2011,09,27,06,25,11.10
2011,09,27,06,26,11.10
2011,09,27,06,27,11.10
2011,09,27,06,28,11.10
2011,09,27,06,29,11.10
2011,09,27,06,30,11.10
2011,09,27,06,31,11.10
2011,09,27,06,32,11.00
2011,09,27,06,33,11.00
2011,09,27,06,34,11.00
2011,09,27,06,35,11.00
2011,09,27,06,36,11.00
2011,09,27,06,37,11.00
2011,09,27,06,38,11.00
2011,09,27,06,39,11.00
2011,09,27,06,40,11.00
2011,09,27,06,41,10.90
2011,09,27,06,42,10.90
2011,09,27,06,43,10.90
2011,09,27,06,44,10.90
2011,09,27,06,45,10.90
2011,09,27,06,46,10.90
2011,09,27,06,47,10.90
2011,09,27,06,48,10.80
2011,09,27,06,49,10.80
2011,09,27,06,50,10.80
2011,09,27,06,51,10.80
2011,09,27,06,52,10.80
2011,09,27,06,53,10.80
2011,09,27,06,54,10.80
2011,09,27,06,55,10.80
2011,09,27,06,56,10.80
2011,09,27,06,57,10.70
2011,09,27,06,58,10.70
2011,09,27,06,59,10.70
2011,09,27,07,00,10.70
2011,09,27,07,01,10.70
2011,09,27,07,02,10.70
2011,09,27,07,03,10.70
2011,09,27,07,04,10.70
2011,09,27,07,05,10.70
2011,09,27,07,06,10.70
2011,09,27,07,07,10.70
2011,09,27,07,08,10.70
2011,09,27,07,09,10.70
2011,09,27,07,10,10.70
2011,09,27,07,11,10.70
2011,09,27,07,12,10.70
2011,09,27,07,13,10.70
2011,09,27,07,14,10.70
2011,09,27,07,15,10.70
2011,09,27,07,16,10.70
2011,09,27,07,17,10.70
2011,09,27,07,18,10.70
2011,09,27,07,19,10.70
2011,09,27,07,20,10.70
2011,09,27,07,21,10.70
2011,09,27,07,22,10.70
2011,09,27,07,23,10.80
2011,09,27,07,24,10.80
2011,09,27,07,25,10.80
2011,09,27,07,26,10.90
2011,09,27,07,27,10.90
2011,09,27,07,28,10.90
2011,09,27,07,29,10.90
2011,09,27,07,30,11.00
2011,09,27,07,31,11.00
2011,09,27,07,32,11.00
2011,09,27,07,33,11.00
2011,09,27,07,34,11.10
2011,09,27,07,35,11.10
2011,09,27,07,36,11.20
2011,09,27,07,37,11.20
2011,09,27,07,38,11.20
2011,09,27,07,39,11.20
2011,09,27,07,40,11.20
2011,09,27,07,41,11.20
2011,09,27,07,42,11.20
2011,09,27,07,43,11.20
2011,09,27,07,44,11.20
2011,09,27,07,45,11.20
2011,09,27,07,46,11.20
2011,09,27,07,47,11.20
2011,09,27,07,48,11.30
2011,09,27,07,49,11.30
2011,09,27,07,50,11.30
2011,09,27,07,51,11.30
2011,09,27,07,52,11.30
2011,09,27,07,53,11.30
2011,09,27,07,54,11.30
2011,09,27,07,55,11.30
2011,09,27,07,56,11.40
2011,09,27,07,57,11.40
2011,09,27,07,58,11.50
2011,09,27,07,59,11.50
2011,09,27,08,00,11.60
2011,09,27,08,01,11.60
2011,09,27,08,02,11.60
2011,09,27,08,03,11.50
2011,09,27,08,04,11.50
2011,09,27,08,05,11.40
2011,09,27,08,06,11.40
2011,09,27,08,07,11.40
2011,09,27,08,08,11.40
2011,09,27,08,09,11.40
2011,09,27,08,10,11.40
2011,09,27,08,11,11.30
2011,09,27,08,12,11.30
2011,09,27,08,13,11.30
2011,09,27,08,14,11.30
2011,09,27,08,15,11.30
2011,09,27,08,16,11.30
2011,09,27,08,17,11.30
2011,09,27,08,18,11.20
2011,09,27,08,19,11.20
2011,09,27,08,20,11.20
2011,09,27,08,21,11.20
2011,09,27,08,22,11.20
2011,09,27,08,23,11.10
2011,09,27,08,24,11.10
2011,09,27,08,25,11.10
2011,09,27,08,26,11.10
2011,09,27,08,27,11.10
2011,09,27,08,28,11.10
2011,09,27,08,29,11.00
2011,09,27,08,30,11.00
2011,09,27,08,31,11.00
2011,09,27,08,32,11.00
2011,09,27,08,33,11.00
2011,09,27,08,34,11.00
2011,09,27,08,35,11.00
2011,09,27,08,36,10.90
2011,09,27,08,37,10.90
2011,09,27,08,38,10.90
2011,09,27,08,39,10.90
2011,09,27,08,40,10.90
2011,09,27,08,41,10.90
2011,09,27,08,42,10.90
2011,09,27,08,43,10.90
2011,09,27,08,44,10.90
2011,09,27,08,45,10.90
2011,09,27,08,46,10.90
2011,09,27,08,47,10.90
2011,09,27,08,48,10.90
2011,09,27,08,49,10.90
2011,09,27,08,50,10.90
2011,09,27,08,51,10.90
2011,09,27,08,52,10.90
2011,09,27,08,53,10.90
2011,09,27,08,54,10.90
2011,09,27,08,55,10.90
2011,09,27,08,56,10.90
2011,09,27,08,57,10.90
2011,09,27,08,58,10.90
2011,09,27,08,59,10.90
2011,09,27,09,00,10.90
2011,09,27,09,01,10.90
2011,09,27,09,02,10.90
2011,09,27,09,03,10.90
2011,09,27,09,04,11.00
2011,09,27,09,05,11.00
2011,09,27,09,06,11.00
2011,09,27,09,07,11.00
2011,09,27,09,08,11.10
2011,09,27,09,09,11.10
2011,09,27,09,10,11.10
2011,09,27,09,11,11.10
2011,09,27,09,12,11.10
2011,09,27,09,13,11.10
2011,09,27,09,14,11.20
2011,09,27,09,15,11.20
2011,09,27,09,16,11.30
2011,09,27,09,17,11.30
2011,09,27,09,18,11.30
2011,09,27,09,19,11.40
2011,09,27,09,20,11.40
2011,09,27,09,21,11.40
2011,09,27,09,22,11.50
2011,09,27,09,23,11.50
2011,09,27,09,24,11.50
2011,09,27,09,25,11.60
2011,09,27,09,26,11.60
2011,09,27,09,27,11.60
2011,09,27,09,28,11.60
2011,09,27,09,29,11.60
2011,09,27,09,30,11.60
2011,09,27,09,31,11.60
2011,09,27,09,32,11.60
2011,09,27,09,33,11.60
2011,09,27,09,34,11.60
2011,09,27,09,35,11.60
2011,09,27,09,36,11.60
2011,09,27,09,37,11.60
2011,09,27,09,38,11.60
2011,09,27,09,39,11.60
2011,09,27,09,40,11.60
2011,09,27,09,41,11.50
2011,09,27,09,42,11.50
2011,09,27,09,43,11.50
2011,09,27,09,44,11.50
2011,09,27,09,45,11.40
2011,09,27,09,46,11.40
2011,09,27,09,47,11.40
2011,09,27,09,48,11.30
2011,09,27,09,49,11.30
2011,09,27,09,50,11.30
2011,09,27,09,51,11.20
2011,09,27,09,52,11.20
2011,09,27,09,53,11.20
2011,09,27,09,54,11.20
2011,09,27,09,55,11.10
2011,09,27,09,56,11.20
2011,09,27,09,57,11.10
2011,09,27,09,58,11.10
2011,09,27,09,59,11.10
2011,09,27,10,00,11.10
2011,09,27,10,01,11.10
2011,09,27,10,02,11.10
2011,09,27,10,03,11.10
2011,09,27,10,04,11.10
2011,09,27,10,05,11.10
2011,09,27,10,06,11.00
2011,09,27,10,07,11.00
2011,09,27,10,08,11.10
2011,09,27,10,09,11.10
2011,09,27,10,10,11.10
2011,09,27,10,11,11.10
2011,09,27,10,12,11.10
2011,09,27,10,13,11.20
2011,09,27,10,14,11.20
2011,09,27,10,15,11.20
2011,09,27,10,16,11.30
2011,09,27,10,17,11.40
2011,09,27,10,18,11.50
2011,09,27,10,19,11.60
2011,09,27,10,20,11.60
2011,09,27,10,21,11.70
2011,09,27,10,22,11.80
2011,09,27,10,23,11.80
2011,09,27,10,24,11.80
2011,09,27,10,25,11.90
2011,09,27,10,26,11.90
2011,09,27,10,27,11.90
2011,09,27,10,28,11.80
2011,09,27,10,29,11.90
2011,09,27,10,30,11.90
2011,09,27,10,31,11.90
2011,09,27,10,32,11.90
2011,09,27,10,33,11.90
2011,09,27,10,34,11.90
2011,09,27,10,35,11.90
2011,09,27,10,36,11.90
2011,09,27,10,37,12.00
2011,09,27,10,38,12.00
2011,09,27,10,39,12.00
2011,09,27,10,40,12.00
2011,09,27,10,41,12.00
2011,09,27,10,42,12.10
2011,09,27,10,43,12.20
2011,09,27,10,44,12.30
2011,09,27,10,45,12.30
2011,09,27,10,46,12.50
2011,09,27,10,47,12.50
2011,09,27,10,48,12.60
2011,09,27,10,49,12.70
2011,09,27,10,50,12.70
2011,09,27,10,51,12.70
2011,09,27,10,52,12.70
2011,09,27,10,53,12.70
2011,09,27,10,54,12.80
2011,09,27,10,55,12.80
2011,09,27,10,56,12.80
2011,09,27,10,57,12.80
2011,09,27,10,58,12.80
2011,09,27,10,59,12.80
2011,09,27,11,00,12.80
2011,09,27,11,01,12.70
2011,09,27,11,02,12.80
2011,09,27,11,03,12.80
2011,09,27,11,04,12.80
2011,09,27,11,05,12.80
2011,09,27,11,06,12.80
2011,09,27,11,07,12.80
2011,09,27,11,08,12.80
2011,09,27,11,09,12.80
2011,09,27,11,10,12.80
2011,09,27,11,11,12.80
2011,09,27,11,12,12.80
2011,09,27,11,13,12.80
2011,09,27,11,14,12.80
2011,09,27,11,15,12.80
2011,09,27,11,16,12.80
2011,09,27,11,17,12.80
2011,09,27,11,18,12.90
2011,09,27,11,19,12.90
2011,09,27,11,20,13.00
2011,09,27,11,21,13.00
2011,09,27,11,22,13.00
2011,09,27,11,23,13.00
2011,09,27,11,24,13.10
2011,09,27,11,25,13.10
2011,09,27,11,26,13.10
2011,09,27,11,27,13.10
2011,09,27,11,28,13.10
2011,09,27,11,29,13.20
2011,09,27,11,30,13.20
2011,09,27,11,31,13.20
2011,09,27,11,32,13.30
2011,09,27,11,33,13.30
2011,09,27,11,34,13.30
2011,09,27,11,35,13.30
2011,09,27,11,36,13.40
2011,09,27,11,37,13.40
2011,09,27,11,38,13.40
2011,09,27,11,39,13.50
2011,09,27,11,40,13.60
2011,09,27,11,41,13.60
2011,09,27,11,42,13.60
2011,09,27,11,43,13.60
2011,09,27,11,44,13.60
2011,09,27,11,45,13.60
2011,09,27,11,46,13.60
2011,09,27,11,47,13.50
2011,09,27,11,48,13.50
2011,09,27,11,49,13.50
2011,09,27,11,50,13.50
2011,09,27,11,51,13.60
2011,09,27,11,52,13.60
2011,09,27,11,53,13.60
2011,09,27,11,54,13.60
2011,09,27,11,55,13.60
2011,09,27,11,56,13.60
2011,09,27,11,57,13.60
2011,09,27,11,58,13.70
2011,09,27,11,59,13.70
2011,09,27,12,00,13.70
2011,09,27,12,01,13.80
2011,09,27,12,02,13.80
2011,09,27,12,03,13.80
2011,09,27,12,04,13.80
2011,09,27,12,05,13.80
2011,09,27,12,06,13.80
2011,09,27,12,07,13.70
2011,09,27,12,08,13.70
2011,09,27,12,09,13.70
2011,09,27,12,10,13.70
2011,09,27,12,11,13.80
2011,09,27,12,12,13.80
2011,09,27,12,13,13.80
2011,09,27,12,14,13.80
2011,09,27,12,15,13.90
2011,09,27,12,16,13.90
2011,09,27,12,17,13.90
2011,09,27,12,18,13.90
2011,09,27,12,19,13.90
2011,09,27,12,20,13.90
2011,09,27,12,21,13.90
2011,09,27,12,22,13.90
2011,09,27,12,23,13.90
2011,09,27,12,24,14.00
2011,09,27,12,25,14.00
2011,09,27,12,26,14.00
2011,09,27,12,27,13.90
2011,09,27,12,28,13.90
2011,09,27,12,29,13.90
2011,09,27,12,30,13.90
2011,09,27,12,31,14.00
2011,09,27,12,32,14.00
2011,09,27,12,33,14.00
2011,09,27,12,34,14.10
2011,09,27,12,35,14.10
2011,09,27,12,36,14.10
2011,09,27,12,37,14.10
2011,09,27,12,38,14.10
2011,09,27,12,39,14.00
2011,09,27,12,40,14.00
2011,09,27,12,41,13.90
2011,09,27,12,42,13.90
2011,09,27,12,43,13.90
2011,09,27,12,44,13.90
2011,09,27,12,45,13.90
2011,09,27,12,46,14.00
2011,09,27,12,47,14.00
2011,09,27,12,48,14.10
2011,09,27,12,49,14.10
2011,09,27,12,50,14.10
2011,09,27,12,51,14.10
2011,09,27,12,52,14.10
2011,09,27,12,53,14.10
2011,09,27,12,54,14.10
2011,09,27,12,55,14.10
2011,09,27,12,56,14.20
2011,09,27,12,57,14.20
2011,09,27,12,58,14.20
2011,09,27,12,59,14.30
2011,09,27,13,00,14.30
2011,09,27,13,01,14.30
2011,09,27,13,02,14.40
2011,09,27,13,03,14.50
2011,09,27,13,04,14.60
2011,09,27,13,05,14.60
2011,09,27,13,06,14.80
2011,09,27,13,07,14.90
2011,09,27,13,08,15.00
2011,09,27,13,09,15.10
2011,09,27,13,10,15.20
2011,09,27,13,11,15.20
2011,09,27,13,12,15.20
2011,09,27,13,13,15.20
2011,09,27,13,14,15.20
2011,09,27,13,15,15.30
2011,09,27,13,16,15.30
2011,09,27,13,17,15.20
2011,09,27,13,18,15.20
2011,09,27,13,19,15.10
2011,09,27,13,20,15.10
2011,09,27,13,21,15.10
2011,09,27,13,22,15.10
2011,09,27,13,23,15.00
2011,09,27,13,24,15.00
2011,09,27,13,25,14.90
2011,09,27,13,26,14.90
2011,09,27,13,27,14.90
2011,09,27,13,28,14.90
2011,09,27,13,29,14.90
2011,09,27,13,30,14.90
2011,09,27,13,31,14.90
2011,09,27,13,32,14.90
2011,09,27,13,33,14.90
2011,09,27,13,34,14.90
2011,09,27,13,35,14.80
2011,09,27,13,36,14.80
2011,09,27,13,37,14.90
2011,09,27,13,38,15.00
2011,09,27,13,39,15.10
2011,09,27,13,40,15.20
2011,09,27,13,41,15.30
2011,09,27,13,42,15.40
2011,09,27,13,43,15.40
2011,09,27,13,44,15.50
2011,09,27,13,45,15.60
2011,09,27,13,46,15.70
2011,09,27,13,47,15.60
2011,09,27,13,48,15.60
2011,09,27,13,49,15.50
2011,09,27,13,50,15.50
2011,09,27,13,51,15.40
2011,09,27,13,52,15.40
2011,09,27,13,53,15.40
2011,09,27,13,54,15.30
2011,09,27,13,55,15.20
2011,09,27,13,56,15.10
2011,09,27,13,57,15.10
2011,09,27,13,58,15.00
2011,09,27,13,59,15.00
2011,09,27,14,00,14.90
2011,09,27,14,01,14.90
2011,09,27,14,02,14.90
2011,09,27,14,03,14.90
2011,09,27,14,04,14.90
2011,09,27,14,05,15.00
2011,09,27,14,06,15.10
2011,09,27,14,07,15.20
2011,09,27,14,08,15.20
2011,09,27,14,09,15.20
2011,09,27,14,10,15.30
2011,09,27,14,11,15.40
2011,09,27,14,12,15.40
2011,09,27,14,13,15.40
2011,09,27,14,14,15.40
2011,09,27,14,15,15.50
2011,09,27,14,16,15.60
2011,09,27,14,17,15.70
2011,09,27,14,18,15.70
2011,09,27,14,19,15.80
2011,09,27,14,20,15.80
2011,09,27,14,21,15.80
2011,09,27,14,22,15.90
2011,09,27,14,23,16.00
2011,09,27,14,24,16.10
2011,09,27,14,25,16.20
2011,09,27,14,26,16.20
2011,09,27,14,27,16.20
2011,09,27,14,28,16.30
2011,09,27,14,29,16.30
2011,09,27,14,30,16.30
2011,09,27,14,31,16.30
2011,09,27,14,32,16.30
2011,09,27,14,33,16.30
2011,09,27,14,34,16.30
2011,09,27,14,35,16.40
2011,09,27,14,36,16.40
2011,09,27,14,37,16.50
2011,09,27,14,38,16.50
2011,09,27,14,39,16.50
2011,09,27,14,40,16.50
2011,09,27,14,41,16.50
2011,09,27,14,42,16.60
2011,09,27,14,43,16.60
2011,09,27,14,44,16.60
2011,09,27,14,45,16.70
2011,09,27,14,46,16.80
2011,09,27,14,47,16.80
2011,09,27,14,48,16.80
2011,09,27,14,49,16.90
2011,09,27,14,50,16.90
2011,09,27,14,51,16.90
2011,09,27,14,52,16.90
2011,09,27,14,53,16.80
2011,09,27,14,54,16.70
2011,09,27,14,55,16.60
2011,09,27,14,56,16.40
2011,09,27,14,57,16.20
2011,09,27,14,58,16.10
2011,09,27,14,59,16.00
2011,09,27,15,00,15.90
2011,09,27,15,01,15.90
2011,09,27,15,02,15.80
2011,09,27,15,03,15.80
2011,09,27,15,04,15.80
2011,09,27,15,05,15.70
2011,09,27,15,06,15.70
2011,09,27,15,07,15.60
2011,09,27,15,08,15.60
2011,09,27,15,09,15.70
2011,09,27,15,10,15.80
2011,09,27,15,11,15.80
2011,09,27,15,12,15.90
2011,09,27,15,13,16.00
2011,09,27,15,14,16.00
2011,09,27,15,15,16.10
2011,09,27,15,16,16.10
2011,09,27,15,17,16.10
2011,09,27,15,18,16.10
2011,09,27,15,19,16.10
2011,09,27,15,20,16.20
2011,09,27,15,21,16.30
2011,09,27,15,22,16.40
2011,09,27,15,23,16.50
2011,09,27,15,24,16.50
2011,09,27,15,25,16.60
2011,09,27,15,26,16.60
2011,09,27,15,27,16.60
2011,09,27,15,28,16.60
2011,09,27,15,29,16.60
2011,09,27,15,30,16.70
2011,09,27,15,31,16.70
2011,09,27,15,32,16.70
2011,09,27,15,33,16.70
2011,09,27,15,34,16.70
2011,09,27,15,35,16.70
2011,09,27,15,36,16.60
2011,09,27,15,37,16.60
2011,09,27,15,38,16.60
2011,09,27,15,39,16.50
2011,09,27,15,40,16.50
2011,09,27,15,41,16.40
2011,09,27,15,42,16.30
2011,09,27,15,43,16.30
2011,09,27,15,44,16.20
2011,09,27,15,45,16.20
2011,09,27,15,46,16.20
2011,09,27,15,47,16.30
2011,09,27,15,48,16.30
2011,09,27,15,49,16.30
2011,09,27,15,50,16.40
2011,09,27,15,51,16.40
2011,09,27,15,52,16.50
2011,09,27,15,53,16.50
2011,09,27,15,54,16.60
2011,09,27,15,55,16.70
2011,09,27,15,56,16.70
2011,09,27,15,57,16.80
2011,09,27,15,58,16.80
2011,09,27,15,59,16.80
2011,09,27,16,00,16.90
2011,09,27,16,01,16.90
2011,09,27,16,02,16.80
2011,09,27,16,03,16.80
2011,09,27,16,04,16.80
2011,09,27,16,05,16.80
2011,09,27,16,06,16.80
2011,09,27,16,07,16.80
2011,09,27,16,08,16.80
2011,09,27,16,09,16.80
2011,09,27,16,10,16.80
2011,09,27,16,11,16.80
2011,09,27,16,12,16.80
2011,09,27,16,13,16.80
2011,09,27,16,14,16.70
2011,09,27,16,15,16.60
2011,09,27,16,16,16.60
2011,09,27,16,17,16.60
2011,09,27,16,18,16.50
2011,09,27,16,19,16.40
2011,09,27,16,20,16.30
2011,09,27,16,21,16.20
2011,09,27,16,22,16.10
2011,09,27,16,23,16.00
2011,09,27,16,24,15.90
2011,09,27,16,25,15.90
2011,09,27,16,26,15.90
2011,09,27,16,27,16.00
2011,09,27,16,28,16.00
2011,09,27,16,29,15.90
2011,09,27,16,30,15.90
2011,09,27,16,31,16.00
2011,09,27,16,32,16.00
2011,09,27,16,33,16.10
2011,09,27,16,34,16.10
2011,09,27,16,35,16.10
2011,09,27,16,36,16.20
2011,09,27,16,37,16.20
2011,09,27,16,38,16.20
2011,09,27,16,39,16.20
2011,09,27,16,40,16.20
2011,09,27,16,41,16.10
2011,09,27,16,42,16.00
2011,09,27,16,43,15.90
2011,09,27,16,44,15.80
2011,09,27,16,45,15.80
2011,09,27,16,46,15.70
2011,09,27,16,47,15.60
2011,09,27,16,48,15.60
2011,09,27,16,49,15.50
2011,09,27,16,50,15.40
2011,09,27,16,51,15.30
2011,09,27,16,52,15.20
2011,09,27,16,53,15.20
2011,09,27,16,54,15.10
2011,09,27,16,55,15.00
2011,09,27,16,56,15.00
2011,09,27,16,57,14.90
2011,09,27,16,58,14.90
2011,09,27,16,59,14.80
2011,09,27,17,00,14.70
2011,09,27,17,01,14.60
2011,09,27,17,02,14.60
2011,09,27,17,03,14.40
2011,09,27,17,04,14.30
2011,09,27,17,05,14.20
2011,09,27,17,06,14.00
2011,09,27,17,07,13.80
2011,09,27,17,08,13.60
2011,09,27,17,09,13.30
2011,09,27,17,10,13.00
2011,09,27,17,11,12.80
2011,09,27,17,12,12.70
2011,09,27,17,13,12.60
2011,09,27,17,14,12.40
2011,09,27,17,15,12.30
2011,09,27,17,16,12.20
2011,09,27,17,17,12.00
2011,09,27,17,18,11.90
2011,09,27,17,19,11.80